TimeEST,TemperatureF,Dew PointF,Humidity,Sea Level PressureIn,VisibilityMPH,Wind Direction,Wind SpeedMPH,Gust SpeedMPH,PrecipitationIn,Events,Conditions,WindDirDegrees,DateUTC
12:15 AM,23.0,15.8,74,30.04,10.0,NW,6.9,-,N/A,,Overcast,320,2013-03-03 05:15:00
12:53 AM,21.9,16.0,78,30.09,8.0,North,4.6,-,N/A,,Overcast,350,2013-03-03 05:53:00
1:08 AM,21.2,15.8,80,30.04,7.0,North,4.6,-,0.00,Snow,Light Snow,350,2013-03-03 06:08:00
1:34 AM,21.2,15.8,80,30.05,10.0,NW,5.8,-,0.00,,Overcast,320,2013-03-03 06:34:00
1:53 AM,21.9,16.0,78,30.09,10.0,NW,4.6,-,0.00,,Overcast,320,2013-03-03 06:53:00
2:53 AM,21.9,15.1,75,30.06,10.0,NW,8.1,-,N/A,,Overcast,320,2013-03-03 07:53:00
3:53 AM,19.9,12.9,74,30.05,10.0,NNW,10.4,-,N/A,,Overcast,330,2013-03-03 08:53:00
4:53 AM,17.1,12.0,81,30.06,10.0,WNW,6.9,-,N/A,,Clear,300,2013-03-03 09:53:00
5:53 AM,16.0,10.0,77,30.06,10.0,WNW,6.9,-,N/A,,Partly Cloudy,300,2013-03-03 10:53:00
6:21 AM,14.0,8.6,79,30.03,10.0,West,4.6,-,N/A,,Mostly Cloudy,280,2013-03-03 11:21:00
6:53 AM,15.1,10.0,80,30.07,10.0,West,4.6,-,N/A,,Overcast,270,2013-03-03 11:53:00
7:22 AM,12.2,8.6,85,30.03,10.0,West,5.8,-,N/A,,Scattered Clouds,270,2013-03-03 12:22:00
7:53 AM,14.0,9.0,80,30.08,10.0,West,4.6,-,N/A,,Clear,280,2013-03-03 12:53:00
8:24 AM,15.8,10.4,79,30.04,10.0,West,4.6,-,N/A,,Mostly Cloudy,280,2013-03-03 13:24:00
8:53 AM,18.0,10.9,74,30.08,10.0,NW,6.9,-,N/A,,Mostly Cloudy,320,2013-03-03 13:53:00
9:01 AM,17.6,10.4,73,30.04,10.0,NW,9.2,-,N/A,,Partly Cloudy,310,2013-03-03 14:01:00
9:53 AM,19.9,12.0,71,30.08,10.0,North,9.2,-,N/A,,Mostly Cloudy,350,2013-03-03 14:53:00
10:53 AM,23.0,12.9,65,30.07,10.0,NNW,9.2,-,N/A,,Scattered Clouds,340,2013-03-03 15:53:00
11:25 AM,23.0,14.0,68,30.02,10.0,WNW,12.7,-,N/A,,Mostly Cloudy,290,2013-03-03 16:25:00
11:53 AM,23.0,14.0,68,30.06,10.0,WNW,12.7,-,N/A,,Mostly Cloudy,290,2013-03-03 16:53:00
12:53 PM,23.0,14.0,68,30.06,10.0,WNW,9.2,-,N/A,,Overcast,290,2013-03-03 17:53:00
1:53 PM,24.1,14.0,65,30.04,10.0,NW,11.5,-,N/A,,Overcast,310,2013-03-03 18:53:00
2:53 PM,25.0,14.0,63,30.04,10.0,NW,8.1,-,N/A,,Overcast,310,2013-03-03 19:53:00
3:53 PM,26.1,15.1,63,30.04,10.0,NW,8.1,-,N/A,,Overcast,310,2013-03-03 20:53:00
4:22 PM,26.6,15.8,64,29.99,10.0,West,10.4,-,N/A,,Overcast,280,2013-03-03 21:22:00
4:53 PM,27.0,15.1,61,30.04,10.0,WNW,10.4,-,N/A,,Overcast,290,2013-03-03 21:53:00
5:53 PM,27.0,15.1,61,30.04,10.0,WNW,9.2,-,N/A,,Overcast,290,2013-03-03 22:53:00
6:53 PM,26.1,16.0,66,30.05,10.0,West,8.1,-,N/A,,Overcast,270,2013-03-03 23:53:00
7:53 PM,25.0,16.0,69,30.06,10.0,West,5.8,-,N/A,,Overcast,280,2013-03-04 00:53:00
8:53 PM,21.9,14.0,72,30.07,10.0,WNW,4.6,-,N/A,,Clear,300,2013-03-04 01:53:00
9:53 PM,21.0,12.0,68,30.07,10.0,West,4.6,-,N/A,,Clear,270,2013-03-04 02:53:00
10:53 PM,21.9,12.9,68,30.07,10.0,NW,8.1,-,N/A,,Clear,310,2013-03-04 03:53:00
11:53 PM,21.9,12.0,66,30.07,10.0,NW,8.1,-,N/A,,Clear,320,2013-03-04 04:53:00